EW9290 Weather Reports


Display with metric or nautical units.
time (UTC)temp
F
wind
direction
speed
MPH
gust
MPH
rain 1hr
in
rain 24hr
in
rain mn
in
humidity
%
barometer
mb
20260510115628 47 17 5.0 6.0 0.00 0.00 0.00 85 1012.8
20260510115126 46 33 3.0 3.0 0.00 0.00 0.00 88 1012.8
20260510114621 47 7 2.0 2.0 0.00 0.00 0.00 90 1012.4
20260510114118 46 8 3.0 3.0 0.00 0.00 0.00 89 1012.4
20260510113613 46 11 3.0 3.0 0.00 0.00 0.00 90 1012.3
20260510113111 46 0 2.0 2.0 0.00 0.00 0.00 91 1012.1
20260510112607 46 23 7.0 8.0 0.00 0.00 0.00 92 1011.8
20260510112104 46 5 0.0 0.0 0.00 0.00 0.00 92 1011.8
20260510111600 46 357 2.0 2.0 0.00 0.00 0.00 92 1012.0
20260510111056 46 11 3.0 3.0 0.00 0.00 0.00 92 1011.5
20260510110552 46 353 4.0 5.0 0.00 0.00 0.00 92 1011.5
20260510110049 46 346 4.0 5.0 0.00 0.00 0.00 92 1011.3
20260510105544 46 344 3.0 3.0 0.00 0.00 0.00 93 1011.3
20260510105039 46 345 3.0 3.0 0.00 0.00 0.00 93 1011.0
20260510104536 46 359 1.0 1.0 0.00 0.00 0.00 93 1011.0
20260510104033 46 7 3.0 3.0 0.00 0.00 0.00 93 1011.0
20260510103530 46 346 4.0 6.0 0.00 0.00 0.00 93 1010.8
20260510103026 46 7 1.0 2.0 0.00 0.00 0.00 93 1010.3
20260510102522 46 9 2.0 2.0 0.00 0.00 0.00 94 1010.2
20260510102018 46 13 1.0 2.0 0.00 0.00 0.00 95 1010.3
20260510101516 46 338 2.0 2.0 0.00 0.00 0.00 96 1010.3
20260510101014 45 2 3.0 3.0 0.00 0.00 0.00 97 1010.1
20260510100510 45 343 4.0 5.0 0.00 0.00 0.00 98 1010.1
20260510100007 45 6 3.0 3.0 0.00 0.00 0.00 99 1010.2
20260510095503 45 2 0.0 1.0 0.00 0.00 0.00 99 1009.9
20260510095002 45 357 0.0 0.0 0.00 0.00 0.00 99 1010.2
20260510094457 45 1 1.0 1.0 0.00 0.00 0.00 99 1010.0
20260510093953 45 357 0.0 0.0 0.00 0.00 0.00 99 1009.9
20260510093449 45 357 0.0 0.0 0.00 0.00 0.00 99 1009.8
20260510092945 45 357 0.0 0.0 0.00 0.00 0.00 99 1009.9
20260510092443 45 357 0.0 0.0 0.00 0.00 0.00 99 1009.8
20260510091942 45 357 0.0 0.0 0.00 0.00 0.00 99 1009.6
20260510091440 45 357 0.0 0.0 0.00 0.00 0.00 99 1009.5
20260510090936 45 357 0.0 0.0 0.00 0.00 0.00 99 1009.5
20260510090433 45 356 0.0 0.0 0.00 0.00 0.00 99 1009.4
20260510085928 45 352 0.0 0.0 0.00 0.00 0.00 99 1009.2
20260510085424 45 352 0.0 0.0 0.00 0.00 0.00 98 1009.2
20260510084919 45 352 0.0 0.0 0.00 0.00 0.00 98 1008.9
20260510084417 46 341 0.0 0.0 0.00 0.00 0.00 98 1009.0
20260510083913 46 341 0.0 0.0 0.00 0.00 0.00 97 1008.8
20260510083410 46 341 0.0 0.0 0.00 0.00 0.00 97 1008.8
20260510082905 46 340 0.0 0.0 0.00 0.00 0.00 95 1008.7
20260510082404 46 340 0.0 0.0 0.00 0.00 0.00 95 1008.7
20260510081902 46 340 0.0 0.0 0.00 0.00 0.00 94 1008.8
20260510081358 47 340 0.0 0.0 0.00 0.00 0.00 94 1008.7
20260510080855 47 339 0.0 0.0 0.00 0.00 0.00 93 1008.8
20260510080348 47 339 0.0 0.0 0.00 0.00 0.00 92 1008.9
20260510075846 47 354 0.0 0.0 0.00 0.00 0.00 91 1008.6
20260510075344 47 355 0.0 0.0 0.00 0.00 0.00 91 1008.7
20260510074840 48 355 0.0 0.0 0.00 0.00 0.00 89 1008.4
20260510074337 48 342 1.0 2.0 0.00 0.00 0.00 88 1008.1
20260510073833 48 5 1.0 1.0 0.00 0.00 0.00 87 1008.1
20260510073329 49 15 0.0 1.0 0.00 0.00 0.00 86 1008.0
20260510072825 49 16 2.0 2.0 0.00 0.00 0.00 85 1008.0
20260510072323 49 4 3.0 3.0 0.00 0.00 0.00 85 1008.1
20260510071819 48 10 4.0 5.0 0.00 0.00 0.00 87 1008.0
20260510071315 48 10 2.0 2.0 0.00 0.00 0.00 89 1008.0
20260510070814 48 11 3.0 3.0 0.00 0.00 0.00 91 1007.9
20260510070310 48 352 3.0 3.0 0.00 0.00 0.00 92 1007.8
20260510065810 48 21 3.0 3.0 0.00 0.00 0.00 94 1007.8
20260510065307 48 16 3.0 3.0 0.00 0.00 0.00 95 1007.3
20260510064804 48 27 3.0 5.0 0.00 0.00 0.00 95 1007.3
20260510064302 48 36 6.0 8.0 0.00 0.00 0.00 96 1007.3
20260510063757 49 21 2.0 3.0 0.00 0.00 0.00 97 1007.1
20260510063254 49 2 5.0 7.0 0.00 0.00 0.00 99 1007.2
20260510062751 50 31 7.0 10.0 0.00 0.00 0.00 99 1007.2
20260510062247 51 35 2.0 2.0 0.00 0.00 0.00 99 1007.3
20260510061742 52 359 5.0 8.0 0.00 0.00 0.00 99 1007.0
20260510061240 52 359 1.0 2.0 0.00 0.00 0.00 99 1006.8
20260510060735 52 348 3.0 3.0 0.00 0.00 0.00 99 1006.8
20260510060233 52 358 1.0 2.0 0.00 0.00 0.00 99 1007.0
20260510055729 52 23 0.0 0.0 0.00 0.00 0.00 99 1006.6
20260510055227 52 23 0.0 0.0 0.00 0.00 0.00 99 1006.6
20260510054722 52 23 0.0 0.0 0.00 0.00 0.00 99 1006.5
20260510054218 52 23 0.0 0.0 0.00 0.00 0.00 99 1006.5
20260510053717 52 23 0.0 0.0 0.00 0.00 0.00 99 1006.4
20260510053214 52 22 0.0 0.0 0.00 0.00 0.00 99 1006.6
20260510052709 52 23 0.0 0.0 0.00 0.00 0.00 99 1006.5
20260510052206 52 21 2.0 2.0 0.00 0.00 0.00 99 1006.4
20260510051702 52 172 0.0 1.0 0.00 0.00 0.00 99 1006.1
20260510051159 52 14 7.0 9.0 0.00 0.00 0.00 99 1006.5
20260510050656 52 177 3.0 3.0 0.00 0.00 0.00 99 1005.7
20260510050153 52 346 1.0 5.0 0.00 0.00 0.00 99 1006.3
20260510045649 53 189 0.0 0.0 0.00 0.00 0.00 99 1005.4
20260510045147 52 168 0.0 0.0 0.00 0.00 0.00 99 1005.4
20260510044642 52 164 1.0 2.0 0.00 0.00 0.00 99 1005.4
20260510044140 52 154 0.0 0.0 0.00 0.00 0.00 99 1005.1
20260510043636 53 161 0.0 0.0 0.00 0.00 0.00 99 1005.2
20260510043132 53 171 0.0 0.0 0.00 0.00 0.00 99 1005.2
20260510042630 53 180 1.0 2.0 0.00 0.00 0.00 98 1005.1
20260510042126 53 184 1.0 1.0 0.00 0.00 0.00 98 1005.3
20260510041623 53 187 2.0 2.0 0.00 0.00 0.00 98 1005.4
20260510041120 53 182 1.0 1.0 0.00 0.00 0.00 98 1005.3
20260510040618 53 184 1.0 1.0 0.00 0.00 0.00 97 1005.1
20260510040114 53 195 1.0 1.0 0.00 0.00 0.00 97 1005.5
20260510035609 54 195 1.0 1.0 0.00 0.63 0.63 97 1005.1
20260510035104 54 221 2.0 2.0 0.00 0.63 0.63 97 1005.3
20260510034602 54 209 1.0 1.0 0.00 0.63 0.63 96 1005.2
20260510034059 54 210 3.0 3.0 0.00 0.63 0.63 96 1005.2
20260510033555 54 213 1.0 2.0 0.14 0.63 0.63 96 1005.0
20260510033053 54 205 2.0 2.0 0.61 0.63 0.63 96 1005.1
20260510032549 54 231 2.0 2.0 0.52 0.61 0.61 96 1005.4
20260510032044 54 210 5.0 6.0 0.05 0.53 0.53 96 1005.2
20260510031539 54 218 1.0 2.0 0.19 0.52 0.52 96 1005.1
20260510031035 54 228 2.0 2.0 0.31 0.52 0.52 98 1005.1
20260510030531 54 232 4.0 5.0 0.12 0.49 0.49 99 1005.9
20260510030029 53 212 0.0 0.0 0.00 0.47 0.47 99 1005.3
20260510025525 53 199 0.0 0.0 0.00 0.47 0.47 99 1005.2
20260510025023 53 192 1.0 1.0 0.00 0.47 0.47 99 1005.4
20260510024520 53 210 2.0 2.0 0.00 0.47 0.47 99 1005.2
20260510024015 53 212 2.0 2.0 0.00 0.47 0.47 99 1005.3
20260510023511 54 239 0.0 0.0 0.00 0.47 0.47 99 1005.3
20260510023009 54 262 0.0 0.0 0.00 0.47 0.47 99 1005.0
20260510022508 54 272 0.0 0.0 0.07 0.47 0.47 99 1005.1
20260510022008 54 302 0.0 0.0 0.19 0.47 0.47 99 1005.3
20260510021505 54 333 1.0 1.0 0.24 0.46 0.46 99 1005.6
20260510021002 54 286 2.0 2.0 0.12 0.44 0.44 99 1006.0
20260510020456 53 253 0.0 0.0 0.00 0.42 0.42 99 1005.1
20260510015952 53 169 1.0 1.0 0.00 0.42 0.42 99 1004.7
20260510015448 53 173 1.0 2.0 0.00 0.42 0.42 99 1004.5
20260510014943 53 186 0.0 0.0 0.00 0.42 0.42 99 1004.6
20260510014436 53 199 0.0 0.0 0.00 0.42 0.42 99 1004.8
20260510013932 53 207 0.0 0.0 0.00 0.42 0.42 99 1004.5
20260510013427 53 208 0.0 0.0 0.00 0.42 0.42 99 1004.4
20260510012923 53 208 0.0 0.0 0.00 0.42 0.42 99 1004.4
20260510012418 53 208 0.0 0.0 0.00 0.42 0.42 98 1004.2
20260510011913 53 208 0.0 0.0 0.00 0.42 0.42 98 1004.3
20260510011408 53 208 0.0 0.0 0.00 0.42 0.42 98 1004.2
20260510010904 53 209 0.0 1.0 0.00 0.42 0.42 98 1004.2
20260510010402 53 222 1.0 1.0 0.00 0.42 0.42 98 1004.0
20260510005858 54 222 0.0 0.0 0.00 0.42 0.42 97 1004.2
20260510005354 54 222 0.0 0.0 0.00 0.42 0.42 97 1004.1
20260510004852 54 222 0.0 0.0 0.00 0.42 0.42 97 1004.1
20260510004349 54 222 0.0 0.0 0.00 0.42 0.42 97 1004.1
20260510003847 54 245 1.0 1.0 0.00 0.42 0.42 96 1004.0
20260510003344 54 250 0.0 0.0 0.00 0.42 0.42 96 1004.0
20260510002842 54 242 0.0 1.0 0.00 0.42 0.42 96 1004.2
20260510002340 54 262 1.0 1.0 0.00 0.42 0.42 96 1003.9
20260510001837 54 242 2.0 5.0 0.00 0.42 0.42 95 1003.8
20260510001335 55 236 1.0 2.0 0.00 0.42 0.42 95 1004.0
20260510000831 55 226 2.0 3.0 0.00 0.42 0.42 95 1004.0
20260510000328 55 254 2.0 2.0 0.00 0.42 0.42 95 1004.2
20260509235825 54 240 1.0 1.0 0.00 0.42 0.42 95 1003.9
20260509235321 54 228 3.0 5.0 0.00 0.42 0.42 95 1004.2
20260509234817 54 244 2.0 2.0 0.05 0.42 0.42 96 1004.2
20260509234314 54 254 3.0 3.0 0.12 0.42 0.42 96 1004.2
20260509233812 54 268 1.0 2.0 0.12 0.41 0.41 96 1003.9
20260509233309 54 244 1.0 2.0 0.19 0.40 0.40 96 1004.3
20260509232805 54 236 2.0 2.0 0.26 0.39 0.39 96 1004.5
20260509232306 54 271 1.0 1.0 0.24 0.37 0.37 95 1004.6
20260509231759 54 297 6.0 9.0 0.28 0.35 0.35 95 1004.1
20260509231256 55 324 7.0 9.0 0.28 0.33 0.33 94 1004.1
20260509230754 56 342 9.0 11.0 0.38 0.30 0.30 92 1003.6
20260509230251 58 284 5.0 7.0 0.38 0.28 0.28 89 1003.9
20260509225745 60 316 5.0 7.0 0.24 0.24 0.24 82 1003.4
20260509225242 64 299 6.0 9.0 0.12 0.22 0.22 72 1002.7
20260509224738 68 236 5.0 8.0 0.00 0.20 0.20 56 1002.1
20260509224235 68 211 3.0 5.0 0.00 0.20 0.20 56 1001.7
20260509223732 68 194 5.0 6.0 0.00 0.20 0.20 56 1001.8
20260509223229 68 235 4.0 5.0 0.00 0.20 0.20 55 1001.5
20260509222726 69 233 10.0 11.0 0.00 0.20 0.20 54 1001.3
20260509222221 69 204 9.0 14.0 0.00 0.20 0.20 53 1001.3
20260509221717 69 246 13.0 16.0 0.00 0.20 0.20 53 1001.6
20260509221213 69 243 3.0 3.0 0.00 0.20 0.20 55 1001.6
20260509220709 69 224 6.0 8.0 0.00 0.20 0.20 55 1001.6
20260509220206 69 233 7.0 11.0 0.00 0.20 0.20 55 1001.4
20260509215701 69 215 7.0 8.0 0.00 0.20 0.20 56 1001.6
20260509215158 69 250 7.0 10.0 0.00 0.20 0.20 56 1001.6
20260509214656 69 230 6.0 8.0 0.00 0.20 0.20 56 1001.4
20260509214152 69 206 8.0 9.0 0.00 0.20 0.20 53 1001.4
20260509213649 69 219 4.0 6.0 0.00 0.20 0.20 55 1001.6
20260509213145 69 211 5.0 7.0 0.00 0.20 0.20 56 1001.4
20260509212643 69 224 7.0 8.0 0.00 0.20 0.20 56 1001.3
20260509212139 69 275 8.0 11.0 0.00 0.20 0.20 57 1001.1
20260509211635 69 207 10.0 14.0 0.00 0.20 0.20 57 1001.3
20260509211132 69 208 8.0 9.0 0.00 0.20 0.20 57 1001.5
20260509210629 69 215 8.0 11.0 0.00 0.20 0.20 57 1001.6
20260509210126 68 217 8.0 9.0 0.00 0.20 0.20 58 1001.6
20260509205621 69 194 8.0 9.0 0.00 0.20 0.20 58 1001.6
20260509205115 69 206 7.0 9.0 0.00 0.20 0.20 56 1001.8
20260509204612 69 228 5.0 7.0 0.00 0.20 0.20 58 1001.9
20260509204108 69 238 11.0 13.0 0.00 0.20 0.20 58 1001.9
20260509203604 69 196 8.0 9.0 0.00 0.20 0.20 58 1002.1
20260509203103 69 267 7.0 10.0 0.00 0.20 0.20 58 1002.3
20260509202603 68 228 5.0 6.0 0.00 0.20 0.20 58 1002.2
20260509202058 68 226 9.0 13.0 0.00 0.20 0.20 59 1002.1
20260509201553 68 201 10.0 13.0 0.00 0.20 0.20 59 1002.5
20260509201052 68 227 10.0 14.0 0.00 0.20 0.20 60 1002.4
20260509200550 68 162 6.0 8.0 0.00 0.20 0.20 61 1002.4
20260509200048 68 216 8.0 9.0 0.00 0.20 0.20 60 1002.6
20260509195543 68 176 8.0 10.0 0.00 0.20 0.20 59 1002.7
20260509195037 68 241 8.0 11.0 0.00 0.20 0.20 61 1002.4
20260509194532 68 222 6.0 7.0 0.00 0.20 0.20 61 1002.5
20260509194031 68 195 11.0 17.0 0.00 0.20 0.20 58 1003.0
20260509193531 68 240 6.0 9.0 0.00 0.20 0.20 59 1003.1
20260509193027 67 235 7.0 9.0 0.00 0.20 0.20 60 1003.0
20260509192524 68 248 8.0 9.0 0.00 0.20 0.20 60 1003.0
20260509192019 67 199 3.0 5.0 0.00 0.20 0.20 63 1003.2
20260509191514 67 208 8.0 11.0 0.00 0.20 0.20 62 1003.3
20260509191010 67 193 7.0 9.0 0.00 0.20 0.20 62 1003.3
20260509190507 67 203 5.0 7.0 0.00 0.20 0.20 62 1003.4
20260509190006 66 179 8.0 14.0 0.00 0.20 0.20 62 1003.6
20260509185502 66 224 8.0 10.0 0.00 0.20 0.20 62 1003.7
20260509184958 66 237 4.0 5.0 0.00 0.20 0.20 65 1003.7
20260509184457 66 213 6.0 8.0 0.00 0.20 0.20 64 1003.8
20260509183952 65 209 9.0 13.0 0.00 0.20 0.20 64 1003.7
20260509183447 65 233 7.0 9.0 0.00 0.20 0.20 64 1003.7
20260509182944 65 238 8.0 11.0 0.00 0.20 0.20 64 1003.8
20260509182440 65 212 5.0 7.0 0.00 0.20 0.20 65 1003.7
20260509181937 65 278 7.0 8.0 0.00 0.20 0.20 64 1003.7
20260509181435 65 197 7.0 9.0 0.00 0.20 0.20 64 1003.7
20260509180933 65 210 2.0 2.0 0.00 0.20 0.20 67 1003.6
20260509180428 65 245 5.0 8.0 0.00 0.20 0.20 65 1003.7
20260509175925 65 230 9.0 16.0 0.00 0.20 0.20 64 1003.7
20260509175421 65 216 6.0 8.0 0.00 0.20 0.20 64 1003.6
20260509174917 64 260 5.0 8.0 0.00 0.20 0.20 65 1003.7
20260509174414 64 205 3.0 5.0 0.00 0.20 0.20 66 1003.6
20260509173910 64 249 7.0 11.0 0.00 0.20 0.20 65 1004.0
20260509173409 64 202 7.0 8.0 0.00 0.20 0.20 65 1004.0
20260509172906 64 236 9.0 13.0 0.00 0.20 0.20 65 1004.3
20260509172403 64 250 4.0 6.0 0.00 0.20 0.20 66 1004.0
20260509171859 63 220 11.0 14.0 0.00 0.20 0.20 66 1004.0
20260509171355 64 235 5.0 7.0 0.00 0.20 0.20 68 1003.9
20260509170851 63 221 3.0 3.0 0.00 0.20 0.20 68 1003.9
20260509170347 63 248 4.0 6.0 0.00 0.20 0.20 68 1004.0
20260509165842 62 182 5.0 5.0 0.00 0.20 0.20 68 1004.1
20260509165336 62 218 6.0 8.0 0.00 0.20 0.20 68 1004.0
20260509164833 62 234 7.0 8.0 0.00 0.20 0.20 69 1003.9
20260509164329 62 241 3.0 6.0 0.00 0.20 0.20 71 1003.7
20260509163826 62 220 6.0 7.0 0.00 0.20 0.20 70 1003.8
20260509163322 61 244 4.0 7.0 0.00 0.20 0.20 67 1004.0
20260509162822 62 201 7.0 8.0 0.00 0.20 0.20 69 1003.8
20260509162314 61 237 4.0 6.0 0.00 0.20 0.20 71 1004.2
20260509161811 62 226 3.0 3.0 0.00 0.20 0.20 71 1004.4
20260509161307 61 225 4.0 5.0 0.00 0.20 0.20 71 1004.3
20260509160802 60 242 3.0 5.0 0.00 0.20 0.20 73 1004.5
20260509160259 60 259 4.0 5.0 0.00 0.20 0.20 74 1004.3
20260509155754 61 243 2.0 3.0 0.00 0.20 0.20 73 1004.5
20260509155251 61 239 3.0 3.0 0.00 0.20 0.20 71 1004.3
20260509154747 61 210 3.0 3.0 0.00 0.20 0.20 71 1004.4
20260509154244 60 222 2.0 2.0 0.00 0.20 0.20 74 1004.7
20260509153741 61 259 4.0 5.0 0.00 0.20 0.20 73 1004.4
20260509153237 60 273 2.0 2.0 0.00 0.20 0.20 76 1004.6
20260509152734 58 250 3.0 3.0 0.00 0.20 0.20 78 1004.5
20260509152230 59 233 3.0 3.0 0.00 0.20 0.20 80 1004.3
20260509151727 60 226 3.0 3.0 0.00 0.20 0.20 81 1004.4
20260509151224 59 236 2.0 2.0 0.00 0.20 0.20 82 1004.4
20260509150722 59 258 5.0 7.0 0.00 0.20 0.20 83 1004.5
20260509150220 60 282 3.0 3.0 0.00 0.20 0.20 82 1004.3
20260509145717 59 237 7.0 9.0 0.00 0.20 0.20 82 1004.4
20260509145211 58 237 5.0 6.0 0.00 0.20 0.20 84 1004.3
20260509144708 59 239 3.0 5.0 0.00 0.20 0.20 85 1004.2
20260509144205 57 262 1.0 2.0 0.00 0.20 0.20 88 1004.4
20260509143702 57 196 1.0 2.0 0.00 0.20 0.20 90 1004.4
20260509143200 56 207 1.0 1.0 0.00 0.20 0.20 90 1004.3
20260509142655 57 253 2.0 2.0 0.00 0.20 0.20 89 1004.5
20260509142152 56 288 4.0 6.0 0.00 0.20 0.20 90 1004.3
20260509141648 56 243 5.0 6.0 0.00 0.20 0.20 90 1004.5
20260509141144 56 228 2.0 2.0 0.00 0.20 0.20 91 1004.1
20260509140641 55 216 1.0 1.0 0.00 0.20 0.20 93 1004.5
20260509140139 55 219 3.0 3.0 0.00 0.20 0.20 93 1004.6
20260509135636 55 220 1.0 2.0 0.00 0.20 0.20 94 1004.7
20260509135134 55 241 4.0 5.0 0.00 0.20 0.20 94 1004.4
20260509134630 55 224 2.0 2.0 0.00 0.20 0.20 94 1004.6
20260509134128 55 216 2.0 2.0 0.00 0.20 0.20 95 1004.4
20260509133625 54 236 3.0 3.0 0.00 0.20 0.20 95 1004.7
20260509133122 54 229 3.0 3.0 0.00 0.20 0.20 95 1004.6
20260509132620 54 219 3.0 3.0 0.00 0.20 0.20 95 1004.6
20260509132119 54 234 1.0 2.0 0.00 0.20 0.20 96 1004.8
20260509131614 54 231 2.0 2.0 0.00 0.20 0.20 96 1004.6
20260509131112 54 196 2.0 2.0 0.00 0.20 0.20 97 1004.5
20260509130607 53 200 2.0 2.0 0.00 0.20 0.20 98 1004.5
20260509130104 53 187 1.0 1.0 0.00 0.20 0.20 98 1004.6
20260509125600 53 208 1.0 2.0 0.00 0.20 0.20 98 1004.6
20260509125057 53 192 1.0 2.0 0.00 0.20 0.20 99 1004.5
20260509124553 53 193 2.0 3.0 0.00 0.20 0.20 99 1004.5
20260509124051 53 207 2.0 2.0 0.00 0.20 0.20 99 1004.8
20260509123549 52 210 4.0 5.0 0.00 0.20 0.20 99 1004.9
20260509123045 52 192 2.0 3.0 0.00 0.20 0.20 99 1004.7
20260509122541 52 184 2.0 2.0 0.00 0.20 0.20 99 1004.9
20260509122038 52 237 3.0 3.0 0.00 0.20 0.20 99 1005.0
20260509121535 52 206 2.0 2.0 0.00 0.20 0.20 99 1005.0
20260509121033 52 226 4.0 6.0 0.00 0.20 0.20 99 1005.0
20260509120531 52 195 3.0 3.0 0.00 0.20 0.20 99 1004.9
20260509120029 52 213 2.0 2.0 0.00 0.20 0.20 99 1004.9